Regional Weather Roundup
Issued by NWS Midland/Odessa, TX

Home | Current Version | Previous Version | Text Only | Print | Product List | Glossary On
Versions: 1 2 3 4 5 6 7 8 9 10 11 12 13 14 15 16 17 18 19 20 21 22 23 24 25 26 27 28 29 30 31 32 33 34 35 36 37 38 39 40 41 42 43 44 45 46 47 48 49 50
000
ASUS44 KMAF 291510
RWRMAF
MIDLAND AREA WEATHER ROUNDUP
NATIONAL WEATHER SERVICE MIDLAND TX
1000 AM CDT FRI JUL 29 2016

...IN SOUTHWEST TEXAS AND SOUTHEAST NEW MEXICO...

CITY           SKY/WX    TMP DP  RH WIND       PRES   REMARKS
ALPINE         SUNNY     75  59  56 E6        30.23R
ANDREWS        FAIR      79  65  62 S8        30.13S
ARTESIA        SUNNY     79  64  61 SE10      30.11S
BIG SPRING     SUNNY     78  69  73 SE7       30.14R
CARLSBAD       SUNNY     80  62  54 SE7       30.08R
DRYDEN           N/A     75  70  84 E6        30.06R
FORT STOCKTON  SUNNY     78  65  63 SE14      30.09R
GUAD PASS      SUNNY     78  51  38 E14       30.23R
HOBBS          SUNNY     79  61  53 SE7       30.15R
MARFA          SUNNY     74  59  59 E6        30.20R
MIDLAND AIRPK  SUNNY     78  67  70 SE7       30.13R
MIDLAND INTL   SUNNY     76  68  76 SE6       30.11R
ODESSA         SUNNY     77  67  71 SE5       30.13R
PECOS          SUNNY     81  64  55 E9        30.07R
PRESIDIO       FAIR      83  62  48 CALM      30.06R
SEMINOLE       SUNNY     80  63  55 S5        30.15R
SNYDER           N/A     78  68  71 S7        30.12R
WINK           SUNNY     79  66  64 SE13      30.08R
$$
...OTHER STATIONS IN TEXAS...

CITY           SKY/WX    TMP DP  RH WIND       PRES   REMARKS
ABILENE        CLOUDY    81  66  60 SW9       30.10R
AMARILLO       CLOUDY    74  63  68 SE18      30.11S
AUSTIN         PTSUNNY   84  75  74 S14       30.05R
BROWNSVILLE    SUNNY     90  74  59 S10       29.98F
CORPUS CHRISTI PTSUNNY   88  77  69 S9        30.00S HX 100
DALLAS FTW     PTSUNNY   85  70  60 SW9       30.02S
DEL RIO        CLOUDY    78  72  81 E8        30.03R
EL PASO        SUNNY     81  57  43 CALM      30.10R
HOUSTON INT    PTSUNNY   86  74  67 SW5       30.04R
LUBBOCK        MOSUNNY   82  62  50 E5        30.12F
SAN ANGELO     SUNNY     82  68  62 VRB6      30.09R
SAN ANTONIO    PTSUNNY   82  72  71 SW9       30.05R
WACO           CLOUDY    81  72  74 SW5       30.06R
WICHITA FALLS  NOT AVBL
$$
...OTHER LOCATIONS IN NEW MEXICO...

CITY           SKY/WX    TMP DP  RH WIND       PRES   REMARKS
ALAMAGORDO     SUNNY     82  55  39 CALM      30.14S
ALBUQUERQUE    MOSUNNY   79  52  38 W5        30.20R
CANNON AFB     MOSUNNY   80  61  50 S7        30.17F
CLOVIS         CLOUDY    79  59  50 SE3       30.17S
HOLLOMAN AFB   SUNNY     83  56  40 S6        30.11S
ROSWELL        SUNNY     81  61  50 VRB3      30.13R
RUIDOSO          N/A     68  52  56 N8        30.37R
SANTA FE       NOT AVBL
TRUTH OR CONSE SUNNY     80  54  40 CALM      30.16R
TUCUMCARI      CLOUDY    83  59  44 S9        30.11F
$$




USA.gov is the U.S. government's official web portal to all federal, state and local government web resources and services.